www.pogodaiklimat.ru

Погода и климат >> Архив погоды >> Аргентина >> Buenos Aires


ПОГОДА в Buenos Aires

  • Прогноз погоды в Buenos Aires
  • Монитор погоды в Buenos Aires
  • Климат города

АРХИВ ПОГОДЫ в Buenos Aires

Время (UTC), дата Ветер
(напр.,м/с)
 
Видим.   Явления Облачность Т
(С)
Тd
(С)
f
(%)
Тe
(С)
Тes
(С)
Комфортность P
(гПа)
Po
(гПа)
Тmin
(С)
Tmax
(С)
R
(мм)
R24
(мм)
S
(см)
18 13.08 С 3 10 км 4/0
[Cs]
+17.6 +7.1 50 +18 +23 1012.7 1009.7
21 13.08 С 3 10 км 3/0
[Cs]
+14.3 +7.3 63 +14 +14 1012.5 1009.4
00 14.08 С 2 10 км ясно +13.0 +7.3 68 +12 +12 1012.1 1009.0 +9.6 +18.6
03 14.08 З 1 10 км 10/0
[Ac As]
+12.4 +7.1 70 +12 +12 1013.0 1010.0
06 14.08 З 2 10 км 8/0
[Ac As]
+11.8 +5.1 63 +11 +11 1012.6 1009.6
09 14.08 З 3 10 км ясно +10.7 +5.3 69 +9 +9 1012.7 1009.7
12 14.08 З 2 10 км ясно +11.5 +6.7 72 +11 +13 1014.7 1011.7 +10.0 +13.5
15 14.08 ЮЗ 5 10 км ясно +18.0 +5.1 43 +18 +23 1016.0 1013.0
18 14.08 З 1 10 км ясно +20.2 +5.3 38 +22 +31 комфорт 1014.9 1012.0
21 14.08 ЮЗ 2 10 км 3/0
[Cs]
+16.6 +3.2 41 +17 +17 1015.9 1012.9
00 15.08 З 1 10 км 10/0
[Ac As]
+15.3 +4.8 49 +16 +16 1017.1 1014.1 +11.5 +20.4
03 15.08 СЗ 1 10 км 4/0
[Ac As]
+11.5 +5.5 67 +12 +12 1017.7 1014.6
06 15.08 СЗ 2 10 км 6/0
[Ac As]
+13.5 +5.8 60 +13 +13 1018.0 1015.0
09 15.08 СЗ 1 10 км 5/0
[Ac As]
+12.5 +5.2 61 +13 +13 1017.7 1014.6
12 15.08 С 2 10 км 4/0
[Ac und Cs]
+12.2 +8.8 80 +11 +13 1018.6 1015.6 +10.0 +15.9
15 15.08 СЗ 3 10 км ясно +19.2 +9.5 53 +20 +28 1017.8 1014.8
18 15.08 СЗ 5 10 км 5/0
[Ac As Cs]
+21.4 +7.7 41 +22 +25 комфорт 1014.8 1011.8
21 15.08 З 2 10 км 4/0
[Ac trans]
+20.0 +8.7 48 +22 +22 комфорт 1015.1 1012.1
00 16.08 Ю 2 10 км 8/0
[Ac As Cs]
+14.6 +7.8 64 +15 +15 1019.4 1016.4 +12.2 +21.6
03 16.08 ЮЗ 2 10 км 4/0
[Ac As]
+12.6 +7.5 71 +12 +12 1021.4 1018.4
06 16.08 ЮЗ 1 10 км ясно +9.3 +7.6 89 +9 +9 1021.8 1018.8
09 16.08 ЮЗ 2 10 км ясно +9.5 +5.8 78 +8 +8 1022.6 1019.6
12 16.08 ЮВ 2 10 км ясно +10.6 +7.1 79 +10 +12 1024.9 1021.8 +8.2 +14.6
15 16.08 З 1 10 км ясно +16.4 +4.7 46 +18 +30 опасность
простуды
1024.3 1021.3
18 16.08 СЗ 1 10 км ясно +18.6 +3.4 36 +20 +28 1021.3 1018.4
21 16.08 штиль 0 10 км ясно +15.2 +2.9 44 +15 +15 1020.8 1017.8
00 17.08 З 1 10 км ясно +11.7 +6.7 71 +13 +13 1020.8 1017.7 +10.6 +19.0
03 17.08 СЗ 1 10 км ясно +10.0 +6.2 77 +10 +10 1020.1 1017.2
06 17.08 СЗ 2 10 км ясно +10.3 +4.8 69 +9 +9 1018.5 1015.6
09 17.08 СЗ 4 10 км ясно +10.2 +5.7 74 +8 +8 1017.6 1014.6
12 17.08 СЗ 4 10 км 3/0
[Cs]
+12.7 +3.9 55 +11 +13 1017.4 1014.4 +9.2 +12.7
15 17.08 З 4 10 км 6/0
[Cs]
+18.6 +7.8 49 +19 +25 1016.5 1013.6
18 17.08 З 4 10 км 1/0
[Cs]
+22.5 +11.1 48 +25 +30 комфорт 1013.9 1010.9
21 17.08 З 3 10 км 4/0
[Cs]
+20.6 +12.1 58 +23 +23 комфорт 1014.2 1011.2
00 18.08 СЗ 3 10 км 6/0
[Cs]
+17.7 +12.0 69 +18 +18 1015.1 1012.1 +12.7 +22.8
03 18.08 СЗ 2 10 км ясно +16.5 +10.3 67 +17 +17 1014.3 1011.3
06 18.08 СЗ 3 10 км ясно +15.8 +8.6 62 +16 +16 1012.6 1009.6
09 18.08 СЗ 4 10 км ясно +14.4 +6.6 59 +13 +13 1011.3 1008.2
12 18.08 СЗ 4 10 км 9/0
[Cs]
+14.8 +7.2 60 +14 +15 1011.2 1008.2 +13.7 +17.7
15 18.08 СЗ 3 10 км 3/0
[Ci fib]
+20.2 +10.8 55 +22 +30 комфорт 1009.3 1006.4
18 18.08 СЗ 5 10 км 3/0
[Cs]
+22.1 +9.7 45 +24 +28 комфорт 1005.5 1002.6
21 18.08 С 3 10 км 8/0
[Cs]
+20.5 +11.4 56 +23 +23 комфорт 1004.7 1001.8
00 19.08 С 2 10 км 10/0
[Ac trans Cs]
+18.8 +12.8 68 +20 +20 1006.4 1003.4 +14.8 +22.7
03 19.08 СЗ 2 10 км 10/0
[Ac As Cs]
+18.9 +13.7 72 +21 +21 комфорт 1006.3 1003.4
06 19.08 ЮВ 6 10 км 10/5 450 м
[St Ac As]
+16.5 +11.0 70 +15 +15 1007.4 1004.5
09 19.08 ЮВ 3 8000 м слабый дождь 10/10 450 м
[St]
+13.4 +11.9 91 +12 +12 1009.1 1006.1
12 19.08 ЮВ 1 8000 м слабый дождь {гроза} 10/8 450 м
[St As op]
+11.7 +10.4 92 +12 +12 1012.7 1009.7 +11.7 +19.6 10
15 19.08 С 2 10 км {дождь} 9/0
[Ac As]
+14.3 +9.7 74 +14 +18 1011.5 1008.5
18 19.08 ЮЗ 1 10 км {дождь} 9/1 480 м
[Sc Ac As Cs]
+16.2 +9.8 66 +18 +22 1012.3 1009.3 0.6
21 19.08 ЮЗ 2 10 км 8/0
[Ac As Cs]
+15.1 +8.0 63 +15 +15 1013.3 1010.2
00 20.08 ЮЗ 2 10 км ясно +12.1 +5.5 64 +12 +12 1016.6 1013.6 +11.7 +16.6
03 20.08 ЮЗ 3 10 км ясно +11.2 +3.0 57 +10 +10 1018.8 1015.8
06 20.08 Ю 1 10 км ясно +9.2 +3.2 66 +9 +9 1020.1 1017.2
09 20.08 ЮЗ 2 10 км ясно +7.9 +2.2 67 +6 +6 1021.8 1018.8
12 20.08 Ю 3 10 км ясно +10.3 +3.5 63 +9 +11 1025.0 1022.0 +7.0 +12.5 0.6

 

Местоположение метеостанции Buenos Aires (Аргентина): широта -34.58 долгота -58.48 высота над уровнем моря 25 м.

В архиве по умолчанию представлена погода в Buenos Aires за последнюю неделю. Архивные данные за месяц целиком и за предыдущие месяцы, начиная с января 2011 года, Вы можете получить, выбрав интересующий диапазон дат из раскрывающегося списка и нажав кнопку "Ввод!".

Внимание! Время в таблицах - всемирное. Для получения местного времени необходимо прибавить поправку, которая в Buenos Aires равна -3 ч.

Смотрите также архив погоды в соседних городах и на ближайших метеорологических станциях:

Погода в Buenos Aires Aeropuerto (Аргентина) (7 км)
Погода в Ezeiza (Аргентина) (26 км)
Погода в Colonia (Уругвай) (61 км)
Погода в La Plata (Аргентина) (68 км)
Погода в Mercedes (Уругвай) (153 км)
Погода в Las Flores (Аргентина) (175 км)
Погода в Gualeguaychu (Аргентина) (176 км)
Погода в Melilla (Уругвай) (205 км)
Погода в Dolores (Аргентина) (205 км)
Погода в Prado (Уругвай) (211 км)

Пояснения к столбцам:

Ветер - указаны скорость ветра в м/с - средняя за 10 мин, порывы в срок и между сроками (в фигурных скобках) и направление, откуда дует ветер: С - северный, СВ - северо-восточный, В - восточный, ЮВ - юго-восточный, Ю - южный, ЮЗ - юго-западный, З - западный, СЗ - северо-западный.
Видимость - горизонтальная дальность видимости в метрах или километрах. При видимости от 1 до 10 км при отсутствии осадков обычно наблюдается дымка, при ухудшении видимости до 1 км и менее - туман. В сухую погоду видимость может ухудшаться дымом, пылью или мглою.
Явления - указаны атмосферные явления, наблюдавшиеся в срок или в последний час перед сроком; фигурными скобками обозначены явления, наблюдавшиеся между сроками (за 1-3 часа до срока); квадратными скобками обозначены град или гололедные отложения с указанием их диаметра в мм.
Облачность - указаны через наклонную черту общая и нижняя облачность в баллах и высота нижней границы облаков в метрах; квадратными скобками обозначены формы облаков: Ci - перистые, Cs - перисто-слоистые, Cc - перисто-кучевые, Ac - высококучевые, As - высокослоистые, Sc - слоисто-кучевые, Ns - слоисто-дождевые, Cu - кучевые, Cb - кучево-дождевые. Подробнее классификацию облаков см. в Атласе облаков (PDF).
T - Температура воздуха - температура, измеренная на высоте 2 м над землей.
Td - Температура точки росы - температура, при понижении до которой содержащийся в воздухе водяной пар достигнет насыщения.
f - Относительная влажность воздуха - влажноcть воздуха, измеренная на высоте 2 м над землей.
Te - Эффективная температура - температура, которую ощущает одетый по сезону человек в тени. Характеристика душности погоды. При расчете учитывается влияние влажности воздуха и скорости ветра на теплоощущения человека.
Tes - Эффективная температура на солнце - температура, которую ощущает человек, с поправкой на солнечный нагрев. Характеристика знойности погоды. Зависит от высоты солнца над горизонтом, облачности и скорости ветра. Ночью, в пасмурную погоду, а также при ветре 12 м/с и более поправка равна нулю.
P - Атмосферное давление - приведенное к уровню моря атмосферное давление.
Po - Атмосферное давление - измеренное на уровне метеостанции атмосферное давление.
Tmin - Минимальная температура - минимум температуры воздуха на высоте 2 м над землей.
Tmax - Максимальная температура - максимум температуры воздуха на высоте 2 м над землей.
R - Количество осадков - Количество выпавших осадков за период времени, мм. При наведении курсора мыши на число - период времени, за который выпало указанное количество осадков.
R24 - Количество осадков - Количество выпавших осадков за 24 часа, мм.
S - Снежный покров - Высота снежного покрова, см. При наведении курсора мыши на число - состояние снежного покрова и степень покрытия местности в баллах.